STARLINK-4015 (52616 NORAD) Tracking and Keplerian Element Data

This shows tracking and keplerian element data for the satellite.

Feedback or suggestion? Click here.




ElementValue
Catalog52616
NameSTARLINK-4015
Epoch Orbit130
Epoch Day192.91667824
Epoch Year2022
RAAN152.954
Inclination53.2176
Eccentricity0.0001212
Argument of Perigee79.9459
Mean Anonmoly107.4706
Mean Motion15.5003394
Decay Rate-0.00577133
L11 52616U 22052U 22192.91667824 -.00577133 00000+0 -10873-1 0 9997
L22 52616 53.2176 152.9540 0001212 79.9459 107.4706 15.50033940 1300

Live tracking and technical data element details for STARLINK-4015 (NORAD 52616). STARLINK-4015 can be tracked NOW for your location showing map with azimuth and elevation plus other details from your city location.

Track the satellite on the map from your city or location and see movement details for azimuth, elevation, latitude, longitude, range, height, and movement on the map or in text.







IsCatalogInMostPopularTable: catalog: 52616, numindb: 5
Update: records affected: 1



GetName: 52616 STARLINK-4015

Hit Count: updated at: Sun, 14 Aug 2022 01:16:27 GMT